Flag for U.S.A. Weather past 2 weeks in Tacoma, Washington, U.S.A.

Now
48 °F

Passing clouds.


Feels Like: 47 °F
Forecast: 40 / 59 °F
Wind: 3 mph from South

Location: Tacoma Narrows Airport

Current Time: Apr 26, 2015 at 10:47:50 AM

Latest Report: Apr 26, 2015 at 9:53 AM


Visibility: 10 mi

Pressure: 30.22 "Hg

Humidity: 74%

Dew point: 40 °F

Location of TacomaLocation

Historic Weather in Tacoma — Graph

°F

Tacoma temperature yesterday

Maximum temperature yesterday: 56 °F (at 2:53 PM)
Minimum temperature yesterday: 44 °F (at 5:53 AM)
Average temperature yesterday: 48 °F

Past Weeks' High & Low Weather Summary

 TemperatureHumidityPressure
High71 °F (Apr 20, 4:53 PM)93% (Apr 13, 4:53 AM)30.57 "Hg (Apr 13, 4:53 AM)
Low38 °F (Apr 14, 6:53 AM)32% (Apr 18, 2:53 PM)29.78 "Hg (Apr 24, 3:53 AM)
Average50 °F68%30.12 "Hg
* Reported Apr 11 9:53 AM — Apr 26 9:53 AM, Tacoma, Weather by CustomWeather, © 2015

Note: Actual official high and low records may vary slightly from our data, if they occured in-between our weather recording intervals... More about our weather records

Advertising

Tacoma weather history for previous 24 hours

 ConditionsComfort  
Time TempWeatherWind HumidityBarometerVisibility
9:53 AM
Sun, Apr 26
48 °FPassing clouds.3 mph74%30.22 "Hg10 mi
8:53 AM44 °FPassing clouds.3 mph85%30.20 "Hg10 mi
7:53 AM43 °FSunny.3 mph86%30.18 "Hg10 mi
6:53 AM42 °FClear.No wind85%30.16 "Hg10 mi
5:53 AM41 °FClear.No wind89%30.15 "Hg10 mi
4:53 AM41 °FClear.No wind86%30.14 "Hg10 mi
3:53 AM40 °FClear.No wind86%30.13 "Hg10 mi
2:53 AM41 °FClear.5 mph86%30.11 "Hg10 mi
1:53 AM43 °FClear.3 mph86%30.11 "Hg10 mi
12:53 AM44 °FClear.3 mph85%30.11 "Hg10 mi
11:53 PM
Sat, Apr 25
46 °FClear.3 mph83%30.10 "Hg10 mi
10:53 PM46 °FClear.3 mph79%30.09 "Hg10 mi
9:53 PM47 °FClear.3 mph77%30.09 "Hg10 mi
8:53 PM46 °FSunny.No wind77%30.07 "Hg10 mi
7:53 PM48 °FSunny.No wind68%30.06 "Hg10 mi
6:53 PM50 °FScattered clouds.3 mph63%30.05 "Hg10 mi
5:53 PM49 °FBroken clouds.8 mph71%30.04 "Hg10 mi
4:53 PM48 °FLight rain. Overcast.6 mph77%30.04 "Hg10 mi
3:53 PM51 °FCloudy.15 mph61%30.02 "Hg10 mi
2:53 PM56 °FPartly sunny.6 mph49%30.01 "Hg10 mi
1:53 PM54 °FPartly sunny.7 mph51%29.99 "Hg10 mi
12:53 PM51 °FPartly sunny.7 mph52%30.00 "Hg10 mi
11:53 AM50 °FPartly sunny.5 mph61%30.00 "Hg10 mi
10:53 AM49 °FPartly sunny.5 mph69%29.99 "Hg10 mi
Weather by CustomWeather, © 2015

See weather overviewHow to use our weather pages